EW5040 Weather Reports


Display with metric or nautical units.
time (UTC)temp
F
wind
direction
speed
MPH
gust
MPH
rain 1hr
in
rain 24hr
in
rain mn
in
humidity
%
barometer
mb
20260508034532 39 315 0.0 0.0 0.00 0.00 0.00 89 1011.9
20260508033026 40 315 0.0 0.0 0.00 0.00 0.00 89 1012.0
20260508031526 41 315 0.0 0.0 0.00 0.00 0.00 88 1012.0
20260508030024 41 315 0.0 0.0 0.00 0.00 0.00 87 1012.0
20260508024526 42 315 0.0 0.0 0.00 0.00 0.00 86 1011.8
20260508023022 43 315 0.0 0.0 0.00 0.00 0.00 86 1011.9
20260508021524 43 315 0.0 0.0 0.00 0.00 0.00 86 1011.8
20260508020033 44 315 0.0 2.0 0.00 0.00 0.00 86 1011.6
20260508014521 44 315 0.0 5.0 0.00 0.00 0.00 86 1011.4
20260508013020 44 290 0.0 6.0 0.00 0.00 0.00 86 1011.6
20260508011520 44 278 2.0 8.0 0.00 0.00 0.00 85 1011.5
20260508010018 45 279 2.0 8.0 0.00 0.00 0.00 83 1011.5
20260508004516 46 321 3.0 13.0 0.00 0.00 0.00 81 1011.2
20260508003016 46 234 2.0 6.0 0.00 0.00 0.00 77 1011.1
20260508001514 47 280 0.0 2.0 0.00 0.00 0.00 74 1010.8
20260508000014 47 281 1.0 8.0 0.00 0.00 0.00 72 1010.6
20260507234514 48 277 1.0 7.0 0.00 0.00 0.00 71 1010.7
20260507233013 49 268 3.0 10.0 0.00 0.00 0.00 69 1010.7
20260507231514 49 263 2.0 10.0 0.00 0.00 0.00 61 1010.6
20260507230013 50 209 2.0 10.0 0.00 0.00 0.00 63 1010.4
20260507224516 51 228 4.0 10.0 0.00 0.00 0.00 65 1010.3
20260507223011 52 194 4.0 10.0 0.00 0.00 0.00 56 1010.2
20260507221512 52 225 2.0 9.0 0.00 0.00 0.00 61 1010.1
20260507220010 53 246 3.0 6.0 0.00 0.00 0.00 57 1010.3
20260507214520 53 263 2.0 7.0 0.00 0.00 0.00 63 1010.0
20260507213012 52 150 1.0 7.0 0.00 0.00 0.00 66 1010.1
20260507211513 53 259 2.0 6.0 0.00 0.00 0.00 65 1010.2
20260507210007 52 306 1.0 3.0 0.00 0.00 0.00 67 1010.1
20260507204505 52 246 1.0 5.0 0.00 0.00 0.00 67 1010.3
20260507203007 52 290 2.0 9.0 0.00 0.00 0.00 65 1010.4
20260507201505 53 331 2.0 8.0 0.00 0.00 0.00 66 1010.4
20260507200003 56 317 2.0 8.0 0.00 0.00 0.00 59 1010.5
20260507194501 57 217 3.0 8.0 0.00 0.00 0.00 48 1010.6
20260507193059 56 173 4.0 9.0 0.00 0.00 0.00 55 1010.6
20260507191558 56 169 4.0 10.0 0.00 0.00 0.00 62 1010.7
20260507184554 56 242 2.0 8.0 0.00 0.00 0.00 53 1010.8
20260507183053 56 331 3.0 9.0 0.00 0.00 0.00 56 1010.9
20260507181550 55 262 3.0 7.0 0.00 0.00 0.00 59 1011.0
20260507180049 54 178 3.0 11.0 0.00 0.00 0.00 70 1011.0
20260507174557 54 193 4.0 14.0 0.00 0.00 0.00 67 1011.1
20260507173047 54 189 7.0 14.0 0.00 0.00 0.00 67 1011.0
20260507171556 54 159 6.0 12.0 0.00 0.00 0.00 63 1011.1
20260507170044 54 183 4.0 14.0 0.00 0.00 0.00 65 1011.2
20260507164539 54 207 5.0 12.0 0.00 0.00 0.00 67 1011.4
20260507163034 53 197 4.0 11.0 0.00 0.00 0.00 69 1011.6
20260507161532 52 200 5.0 9.0 0.00 0.00 0.00 67 1011.7
20260507160030 52 185 5.0 14.0 0.00 0.00 0.00 65 1011.9
20260507154533 52 234 4.0 10.0 0.00 0.00 0.00 64 1012.0
20260507153027 53 181 4.0 10.0 0.00 0.00 0.00 64 1012.1
20260507151524 52 309 1.0 6.0 0.00 0.00 0.00 64 1012.2
20260507150021 52 298 1.0 7.0 0.00 0.00 0.00 61 1012.2
20260507144518 52 230 1.0 6.0 0.00 0.01 0.00 64 1012.2
20260507143013 52 203 3.0 8.0 0.00 0.01 0.00 61 1012.3
20260507141509 52 157 2.0 8.0 0.00 0.01 0.00 66 1012.4
20260507140007 51 117 1.0 5.0 0.00 0.01 0.00 66 1012.4
20260507134502 50 88 2.0 5.0 0.00 0.02 0.00 65 1012.5
20260507133057 49 63 0.0 3.0 0.00 0.02 0.00 65 1012.6
20260507131552 47 40 2.0 5.0 0.00 0.02 0.00 71 1012.7
20260507130047 45 91 1.0 4.0 0.00 0.02 0.00 77 1012.7
20260507124543 43 30 1.0 5.0 0.00 0.03 0.00 84 1012.7
20260507123040 42 67 2.0 6.0 0.00 0.03 0.00 90 1012.7
20260507121539 41 68 0.0 3.0 0.00 0.03 0.00 96 1012.7
20260507120038 41 76 0.0 3.0 0.00 0.03 0.00 97 1012.7
20260507114536 40 40 0.0 4.0 0.00 0.05 0.00 97 1012.8
20260507113035 40 329 1.0 4.0 0.00 0.05 0.00 97 1012.8
20260507111541 40 304 1.0 4.0 0.00 0.05 0.00 97 1012.9
20260507110032 39 287 0.0 3.0 0.00 0.05 0.00 97 1012.8
20260507104531 38 200 0.0 0.0 0.00 0.07 0.00 96 1012.5
20260507103035 38 200 0.0 0.0 0.00 0.07 0.00 96 1012.1
20260507101532 38 200 0.0 0.0 0.00 0.07 0.00 96 1011.9
20260507100034 37 200 0.0 0.0 0.00 0.07 0.00 96 1011.9
20260507094538 37 200 0.0 0.0 0.00 0.12 0.00 96 1012.0
20260507093032 36 200 0.0 0.0 0.00 0.12 0.00 95 1012.0
20260507091528 35 200 0.0 0.0 0.00 0.12 0.00 94 1012.1
20260507090022 36 200 0.0 0.0 0.00 0.12 0.00 94 1012.0
20260507084524 36 200 0.0 0.0 0.00 0.18 0.00 94 1011.9
20260507083017 36 200 0.0 0.0 0.00 0.18 0.00 94 1011.9
20260507081522 36 200 0.0 0.0 0.00 0.18 0.00 94 1012.0
20260507080013 37 200 0.0 0.0 0.00 0.18 0.00 93 1012.1
20260507074512 37 200 0.0 0.0 0.00 0.22 0.00 93 1012.1
20260507073010 38 200 0.0 0.0 0.00 0.22 0.00 93 1012.0
20260507071508 38 200 0.0 0.0 0.00 0.22 0.00 93 1012.1
20260507070010 39 200 0.0 0.0 0.00 0.22 0.00 93 1012.0
20260507064502 40 200 0.0 0.0 0.00 0.26 0.00 93 1011.9
20260507063101 40 200 0.0 0.0 0.00 0.26 0.00 94 1012.3
20260507061557 41 200 0.0 0.0 0.00 0.26 0.00 94 1012.4
20260507060103 41 200 0.0 0.0 0.00 0.26 0.00 94 1012.6
20260507054556 42 200 0.0 0.0 0.00 0.31 0.00 94 1012.6
20260507053056 42 200 0.0 0.0 0.00 0.31 0.00 93 1012.6
20260507051551 42 200 0.0 0.0 0.00 0.31 0.00 93 1012.7
20260507050050 42 200 0.0 0.0 0.00 0.31 0.00 93 1012.8
20260507044557 43 200 0.0 0.0 0.00 0.37 0.00 93 1012.8
20260507043046 43 200 0.0 0.0 0.00 0.37 0.00 93 1012.9
20260507041544 43 200 0.0 1.0 0.00 0.37 0.00 93 1013.0
20260507040043 43 200 0.0 0.0 0.00 0.37 0.00 93 1012.9